GFSSE_prec_cthk_216.txt.gz
RH
26 31 27 24 23 23 23 25 27 30 34 32 30 28 28 25 24 23 22 23 21 19 21 22 23 23 24 23 20 19 19 20 25 27 27 27 30 31 30 28 24 22 22
24 27 29 25 23 22 26 27 26 29 33 36 33 30 28 28 25 23 23 23 21 20 22 23 23 23 23 23 22 21 21 23 27 29 31 27 28 28 24 25 26 24 23
26 28 25 25 26 24 26 27 28 27 31 35 35 32 30 28 27 26 25 23 21 21 23 24 23 22 22 23 24 24 24 26 29 33 35 31 27 26 26 26 26 25 24
30 28 28 28 27 26 27 28 29 28 29 31 35 35 32 29 28 28 26 22 21 22 23 23 23 22 22 23 24 25 26 28 32 40 45 51 39 27 26 27 28 28 27
33 28 27 26 28 28 27 29 31 32 29 30 33 36 35 29 28 27 25 23 22 23 23 24 24 23 23 24 25 26 26 27 35 45 62 58 42 38 30 25 28 30 28
31 28 26 27 28 28 28 29 33 33 30 32 32 33 35 33 27 27 28 26 24 23 23 24 25 24 24 25 26 27 26 27 38 46 59 62 36 42 34 31 29 28 29
29 31 27 27 27 28 28 28 32 33 33 33 33 33 36 36 30 29 31 28 26 24 24 25 26 26 25 26 26 27 28 28 41 53 78 68 40 40 37 40 38 31 29
30 30 26 27 29 30 29 30 33 33 36 38 38 37 38 37 35 31 33 32 28 30 27 27 27 28 27 28 28 27 27 28 42 56 76 52 45 41 36 37 40 37 30
30 31 28 27 29 29 30 34 35 34 37 41 41 41 42 41 39 34 33 33 32 34 32 29 28 29 30 29 28 28 28 27 39 48 71 47 49 46 35 34 39 40 38
31 30 27 26 28 31 32 32 33 35 37 41 45 46 45 45 44 39 37 36 36 36 34 32 30 29 30 30 29 29 28 27 39 36 46 45 55 41 36 35 35 40 40
33 31 28 27 27 29 31 34 37 39 41 45 47 50 48 47 47 46 41 37 39 36 34 32 30 29 28 28 29 29 30 32 32 37 47 48 43 43 39 34 33 33 32
33 33 33 31 27 28 32 35 38 41 45 48 48 50 52 48 51 49 51 43 42 38 36 33 31 29 27 25 25 27 30 38 39 37 44 41 37 35 34 32 28 22 20
34 35 35 34 33 30 34 35 37 41 44 49 51 53 53 52 59 55 55 58 47 41 38 35 32 30 28 30 34 30 32 37 41 39 37 36 35 30 27 26 22 16 14
43 38 40 38 36 35 36 38 41 38 42 46 50 57 61 60 61 61 58 61 60 48 40 36 34 32 30 31 39 35 40 40 42 36 36 37 34 30 27 23 18 19 24
55 51 42 41 39 38 41 40 40 40 41 43 49 55 58 60 61 59 57 59 60 59 52 44 41 37 34 33 33 33 34 34 42 36 36 33 30 30 27 22 22 23 26
63 58 49 43 42 40 41 44 44 45 45 45 45 47 54 62 63 66 69 68 67 63 58 55 47 44 39 34 31 31 33 32 38 38 39 36 32 28 24 24 28 29 28
52 58 57 47 43 45 42 44 46 46 46 46 46 44 46 52 56 59 63 67 68 66 65 60 57 47 40 37 37 36 35 36 36 38 33 34 30 28 25 27 27 26 31
46 53 57 50 46 43 43 45 47 51 52 49 47 47 47 47 48 55 61 64 68 67 64 63 58 54 48 41 40 41 40 39 37 37 33 35 33 29 29 30 31 30 28
39 50 56 53 45 43 42 45 51 52 53 51 51 50 49 50 50 52 56 63 66 68 67 63 62 60 56 52 48 45 44 42 39 37 35 35 34 32 34 30 30 31 31
33 40 45 44 45 44 42 43 46 48 52 53 55 56 55 54 55 57 56 61 65 66 61 60 60 61 58 55 54 52 50 47 45 43 40 37 36 33 34 36 36 34 33
36 41 46 45 46 45 46 49 49 49 50 54 55 57 57 57 58 58 59 63 64 63 68 68 65 65 62 58 57 56 55 54 51 47 48 41 40 38 34 36 37 36 35
34 37 42 44 44 44 45 44 46 48 50 52 54 55 57 59 60 61 62 64 65 68 69 69 70 68 67 68 64 63 58 58 57 56 57 53 47 44 40 40 40 36 35
35 37 40 41 42 46 49 46 40 42 45 47 48 49 49 49 51 56 62 66 67 68 70 74 74 71 72 73 70 68 67 59 60 60 59 61 57 51 45 42 41 39 39
35 35 35 35 35 44 47 48 48 45 46 47 49 51 50 47 44 43 45 50 55 63 68 73 78 77 78 77 77 72 70 70 67 65 64 63 63 60 57 52 47 44 41
38 37 36 35 32 32 31 29 29 30 32 32 34 37 37 36 37 41 42 48 45 52 55 56 67 74 79 78 80 81 79 77 74 68 64 69 71 68 69 67 62 58 52
40 38 36 37 37 35 34 34 34 34 33 32 32 31 33 36 41 42 42 45 46 46 47 52 53 61 70 71 78 80 79 79 78 83 75 74 75 75 74 73 69 68 64

GFSSE_prec_cthk_222.txt.gz
RH
33 30 28 21 22 22 22 25 27 27 26 25 24 23 21 19 18 19 19 17 17 18 20 21 22 23 22 20 19 19 21 24 25 26 26 26 24 21 21 20 20 20 19
34 29 30 26 23 25 25 27 29 31 29 29 27 26 24 22 20 19 19 17 17 18 19 20 21 21 21 20 20 22 25 28 28 28 25 27 24 24 23 22 21 21 21
38 34 28 24 23 25 27 27 30 33 32 30 30 29 27 24 22 20 19 18 18 18 19 19 20 20 20 21 21 24 28 31 33 35 33 31 28 27 24 24 25 25 23
37 32 25 25 22 24 27 28 30 33 34 33 31 32 31 28 24 22 19 18 18 18 19 19 20 20 21 22 22 23 27 32 36 37 42 48 45 36 32 25 25 25 25
35 33 27 26 22 25 26 27 29 33 34 35 33 30 32 31 27 26 22 21 19 18 19 20 20 21 22 22 23 24 25 31 36 37 39 54 51 39 35 30 26 25 25
42 41 31 27 27 28 27 28 28 32 35 38 36 31 29 31 30 27 27 23 23 19 19 19 20 21 22 22 23 23 24 27 35 37 40 62 68 39 38 34 33 29 27
48 38 32 28 26 27 27 28 29 31 35 37 39 33 30 31 32 29 29 27 24 22 20 20 22 23 23 23 23 23 23 27 32 35 43 69 71 51 42 38 34 36 30
36 33 29 28 28 26 26 28 30 31 33 37 39 36 34 34 33 33 32 30 26 26 24 23 24 24 24 25 25 25 25 26 29 35 39 55 57 55 43 39 36 34 34
37 31 29 27 26 25 25 27 31 33 33 33 36 37 36 37 35 34 33 32 30 28 28 26 25 24 24 24 26 27 27 26 29 34 38 43 49 53 45 39 33 32 35
35 33 28 26 26 25 26 28 30 32 33 35 37 38 37 38 38 37 36 34 34 30 28 29 27 26 25 25 25 27 28 27 27 32 35 37 40 40 38 37 35 32 31
39 38 29 25 25 26 25 26 29 30 31 33 36 38 39 40 41 41 42 41 37 34 32 30 29 28 27 26 24 24 25 26 27 30 32 32 35 39 40 39 35 32 28
34 35 31 26 25 25 25 26 28 31 32 34 37 39 40 41 43 43 43 45 43 38 35 32 31 30 28 27 26 26 27 26 26 28 32 32 35 35 37 35 31 30 23
30 30 28 26 27 26 26 26 27 29 31 34 37 39 41 43 43 42 41 41 44 45 40 36 34 32 31 30 29 28 30 30 29 29 30 30 33 35 32 30 28 25 23
28 26 26 26 28 28 27 27 28 29 31 33 35 37 39 42 45 46 45 45 50 55 56 53 42 37 33 31 31 34 34 36 37 36 34 33 33 32 31 30 28 24 22
32 36 38 38 32 31 29 28 27 28 28 31 33 36 39 40 42 45 48 51 51 52 55 57 56 47 40 35 32 33 36 37 40 42 43 42 37 34 33 30 27 25 20
37 44 47 43 41 43 35 31 31 34 35 33 33 36 37 39 41 46 48 52 54 56 59 58 56 59 57 45 37 36 35 36 36 39 41 43 42 37 35 34 29 26 23
36 42 46 51 49 47 45 37 37 34 34 36 36 37 38 38 40 44 46 47 49 50 52 56 61 60 60 62 62 52 43 41 38 38 40 40 41 41 38 35 32 29 25
37 40 53 64 58 54 48 44 41 38 38 39 39 41 43 43 42 43 44 45 48 50 51 52 51 53 58 59 60 62 61 50 45 42 39 39 41 41 40 39 36 33 29
35 48 48 48 52 54 53 48 44 41 44 45 47 50 51 49 47 48 50 51 53 54 54 54 53 55 57 57 60 60 59 59 53 48 45 44 43 44 42 39 38 37 33
39 42 49 48 53 60 65 57 51 49 46 46 47 47 50 50 51 53 54 55 56 56 59 60 61 61 59 61 61 59 59 56 54 53 52 51 50 48 47 45 43 42 40
41 46 46 46 49 52 53 56 57 56 53 50 53 54 53 54 56 56 56 56 56 59 64 67 68 68 68 68 69 62 63 63 58 54 54 55 56 56 55 52 50 48 46
33 39 46 49 47 50 50 53 58 57 52 53 53 58 57 57 59 58 60 59 59 59 65 70 70 72 79 76 69 73 65 61 60 57 58 56 58 58 58 57 55 55 55
32 34 39 43 47 50 50 52 55 56 53 51 52 53 54 57 60 60 62 63 65 68 69 70 72 74 74 74 77 74 70 70 66 67 61 61 60 59 60 60 58 60 62
36 36 35 38 45 51 52 54 54 52 49 49 49 50 50 50 45 39 40 43 44 47 50 53 58 62 62 62 65 68 70 65 66 63 60 60 61 57 57 63 62 66 68
38 41 43 44 47 50 52 52 51 52 51 49 50 45 40 38 40 38 37 39 40 41 42 42 44 50 49 51 52 56 56 65 59 61 58 57 56 54 56 55 53 63 70
42 46 48 48 51 54 54 55 54 54 49 43 39 38 38 38 37 36 38 41 42 42 45 50 54 53 51 51 51 57 57 53 54 64 60 58 57 56 55 53 51 52 58

GFSSE_prec_cthk_228.txt.gz
RH
29 30 30 30 27 24 24 24 27 29 30 30 28 20 20 22 20 18 18 18 18 18 20 20 19 19 18 17 18 20 21 22 22 22 22 22 23 22 22 22 21 20 19
27 30 31 28 26 25 22 22 24 27 28 27 25 25 22 22 23 22 19 19 18 19 19 20 19 19 19 19 20 22 22 23 24 24 24 23 25 26 25 24 23 22 21
21 27 27 28 28 27 24 25 26 26 27 29 31 29 29 26 26 25 23 21 22 18 18 18 19 19 19 20 21 23 24 26 27 29 30 34 36 34 28 23 22 22 22
26 26 29 30 31 28 26 27 27 27 29 31 33 34 35 33 28 26 25 24 23 21 18 18 19 19 20 20 22 25 26 29 30 33 35 38 41 36 31 26 24 23 23
28 24 28 30 32 31 29 29 29 29 29 31 33 36 36 34 30 30 27 26 27 24 21 20 20 22 22 21 23 26 28 30 30 34 35 43 48 57 36 30 29 28 25
34 27 28 30 33 34 33 30 31 31 32 31 33 36 38 35 34 34 32 28 29 28 25 23 23 23 23 23 24 26 26 28 31 30 32 46 57 62 40 32 30 31 29
38 36 35 33 34 35 34 32 31 30 33 33 34 36 38 37 39 37 35 32 30 30 27 27 25 24 23 24 24 24 26 27 29 32 31 38 42 50 47 39 31 28 29
41 39 42 40 37 36 33 31 30 29 32 33 33 35 38 39 40 38 37 35 32 31 30 27 28 27 25 25 24 24 24 26 29 32 32 36 39 41 43 39 34 30 27
49 46 42 40 36 33 32 30 29 30 31 34 33 33 34 37 40 39 37 37 35 32 30 29 28 30 28 26 26 25 24 24 25 27 33 36 39 38 37 36 34 33 29
50 49 44 39 32 32 30 29 28 29 29 31 32 34 35 37 41 38 36 36 37 37 33 31 30 30 31 30 29 29 28 27 26 26 32 34 35 35 36 35 35 34 33
44 45 41 35 34 31 27 26 26 27 29 32 33 34 36 38 42 39 39 39 38 38 36 35 31 30 31 31 30 29 29 29 29 28 31 34 34 34 36 34 35 33 30
36 39 40 38 32 28 26 24 24 25 27 31 32 32 34 38 40 42 42 42 41 39 38 39 36 33 31 30 29 29 29 29 31 32 32 34 35 35 34 36 35 32 31
35 39 36 33 29 27 24 24 24 25 26 29 32 33 35 39 43 46 46 46 45 45 47 47 43 41 36 33 31 31 30 29 31 33 35 36 37 38 38 36 34 34 31
38 37 35 34 29 25 24 25 25 25 27 28 29 31 34 39 44 48 51 51 50 48 50 55 59 58 53 46 40 35 33 32 33 34 35 36 38 40 41 37 34 33 31
41 38 36 36 33 26 25 26 27 27 27 28 28 29 32 36 40 42 46 48 51 52 55 56 58 58 59 56 47 41 38 38 37 36 36 36 38 40 41 40 38 37 34
44 42 41 36 33 27 27 29 30 29 28 29 29 30 30 32 36 39 41 43 47 51 55 55 56 56 58 57 56 51 43 41 42 41 38 37 37 37 37 38 39 39 38
43 41 33 34 33 32 32 34 36 36 32 30 31 32 32 33 35 36 39 41 46 50 54 54 54 55 56 57 57 58 58 59 60 60 59 56 50 43 40 38 34 36 39
40 35 31 31 31 35 40 43 43 39 38 35 33 33 35 36 39 42 46 50 53 53 53 53 54 54 54 54 56 58 59 59 59 59 59 59 58 56 51 49 47 40 38
35 32 31 33 36 40 47 60 57 50 43 41 43 42 40 42 44 47 51 53 53 52 52 54 55 56 56 57 57 59 60 59 58 57 57 55 55 57 58 57 56 55 54
34 33 36 38 42 44 47 57 57 56 56 53 46 46 47 47 50 50 54 57 56 56 59 61 59 61 58 60 59 62 65 66 64 63 64 65 62 62 60 60 59 60 60
37 35 35 39 44 45 51 54 56 56 62 65 58 58 54 54 52 54 55 58 58 59 61 64 61 62 59 62 66 68 74 75 74 70 72 72 69 67 66 65 66 64 65
35 34 36 41 40 44 49 49 52 55 55 56 55 53 57 57 57 57 57 61 66 67 68 68 67 63 63 66 69 72 69 67 66 68 68 65 65 64 62 68 68 65 68
32 33 35 37 38 43 48 51 55 58 58 57 54 52 63 63 64 60 64 63 67 66 65 64 63 63 64 65 66 64 61 60 53 52 56 53 54 51 54 51 54 55 58
33 36 36 35 39 44 46 52 54 54 51 53 55 61 60 63 60 59 62 61 69 66 67 67 57 54 52 51 49 52 53 54 53 52 51 52 51 51 49 49 48 51 56
36 38 38 38 40 41 43 45 50 57 60 59 60 62 62 60 55 60 62 63 58 53 44 44 44 44 44 47 47 47 50 52 53 53 51 49 47 45 42 39 39 42 43
38 39 42 41 41 42 45 49 54 59 62 66 70 65 62 56 56 57 53 46 41 40 42 42 43 43 43 46 47 48 49 47 48 46 43 39 36 31 29 31 35 31 30

GFSSE_prec_cthk_231.txt.gz
RH
28 26 29 30 28 26 28 32 34 35 34 36 35 31 28 27 28 24 21 20 18 19 20 20 20 19 18 18 20 23 23 23 23 22 21 21 22 22 22 21 20 19 19
23 25 27 30 30 25 27 32 34 33 33 34 30 30 31 29 26 25 24 21 20 18 19 19 19 19 19 20 22 24 24 24 23 24 26 29 29 25 25 22 21 21 20
23 26 29 31 31 28 25 29 30 30 29 28 28 29 30 31 27 26 25 23 21 19 19 19 19 19 19 21 23 24 25 26 27 29 33 35 34 29 29 23 21 22 22
24 26 32 31 31 30 27 28 27 26 25 26 29 31 32 34 30 27 27 25 25 22 20 19 20 20 20 21 23 25 26 29 30 32 37 40 39 41 36 30 25 24 24
24 26 32 32 31 32 30 30 30 29 28 29 30 32 34 35 33 30 30 28 27 25 23 21 22 23 22 22 24 26 27 30 31 33 37 46 55 59 38 31 29 27 26
30 34 31 29 31 32 32 33 32 31 31 30 30 32 34 35 35 34 34 29 28 28 25 25 23 23 24 24 24 26 27 30 33 33 38 46 50 52 41 32 29 29 26
32 35 37 34 34 34 35 34 35 33 33 31 31 31 33 36 35 36 35 33 29 28 26 26 27 24 24 25 24 25 26 27 29 33 33 38 43 43 43 37 30 29 29
41 40 40 39 38 39 38 37 35 34 34 32 32 32 32 34 34 36 36 35 31 29 28 26 28 28 27 25 24 24 25 25 28 32 33 36 38 38 37 34 32 30 29
51 47 43 45 45 45 40 35 35 33 33 32 33 33 32 33 35 36 37 35 34 32 29 29 29 31 31 29 27 27 26 25 25 27 30 36 38 35 34 33 33 32 31
51 50 50 47 46 38 38 35 34 33 32 32 32 32 32 33 33 36 37 36 36 36 32 30 31 31 31 32 31 30 29 29 28 27 30 33 35 34 35 34 35 33 29
47 52 50 47 43 36 36 33 33 32 31 30 31 34 35 34 34 37 39 39 40 38 36 35 34 32 32 31 30 30 31 30 31 31 32 33 34 35 34 36 36 34 29
42 47 47 43 36 35 33 32 30 29 29 29 30 31 32 33 36 40 41 43 44 43 40 38 38 37 36 36 33 31 30 30 31 33 34 36 37 40 38 36 37 33 32
36 39 41 40 39 37 32 30 26 25 25 27 28 30 32 34 36 40 44 46 46 47 46 47 46 41 41 40 40 38 34 32 32 34 36 36 38 39 46 42 34 32 31
35 37 39 41 38 34 32 27 25 25 24 25 26 28 31 33 36 40 45 47 48 48 49 48 51 53 55 54 48 43 39 36 35 36 37 37 38 39 40 42 40 37 34
37 36 39 38 36 34 32 29 26 26 26 25 26 27 29 32 36 39 42 44 45 48 51 52 55 56 57 57 57 52 45 39 37 37 36 37 37 37 39 38 38 38 38
40 38 39 38 36 36 38 32 27 27 28 28 27 28 29 31 34 36 38 40 41 44 49 54 55 56 55 55 56 57 56 52 50 50 51 50 48 44 40 38 38 37 37
41 44 42 40 39 38 40 36 31 31 32 31 31 30 31 32 33 34 36 37 38 40 44 51 56 56 56 56 55 55 56 57 60 62 62 63 63 62 60 56 48 43 40
42 42 44 41 37 39 38 34 33 38 39 37 33 32 32 33 34 35 37 39 40 44 47 50 52 52 53 53 53 51 52 55 58 59 61 62 62 60 60 61 60 58 57
40 43 43 40 36 36 38 38 40 45 46 44 39 36 35 35 36 38 42 44 46 50 53 52 52 51 53 55 55 53 51 53 57 59 60 60 60 62 62 62 61 61 61
40 43 44 40 37 38 41 42 44 55 59 52 47 44 46 43 42 44 45 45 47 50 51 51 53 56 57 58 56 55 54 54 56 61 64 67 66 71 71 71 71 67 67
38 41 42 41 40 40 41 41 40 50 54 53 58 61 57 54 54 50 49 47 49 51 50 57 58 59 61 66 61 58 58 63 66 70 70 70 71 74 73 72 71 68 68
32 38 39 38 39 40 43 45 41 48 53 52 55 65 64 59 55 54 53 52 53 54 57 62 68 68 66 66 65 63 58 57 56 56 54 54 55 54 54 53 55 55 58
30 32 38 38 39 41 44 48 48 51 51 50 54 61 62 57 54 57 60 61 61 62 62 62 65 64 63 61 62 61 59 54 50 49 49 51 52 51 51 51 50 51 52
28 27 36 39 40 44 46 47 48 50 51 51 59 62 63 56 52 60 63 65 63 63 67 63 68 65 67 57 54 52 49 49 47 49 51 53 52 47 45 45 45 46 45
28 26 29 35 40 44 45 44 46 53 56 57 59 59 57 56 58 59 63 62 64 64 71 73 63 56 46 45 44 46 47 46 47 49 47 44 46 43 38 32 32 32 30
31 29 30 33 38 40 41 40 43 46 50 54 59 62 61 61 71 63 64 58 64 63 57 45 40 42 43 44 44 45 46 47 46 45 43 39 38 35 35 30 28 26 25

GFSSE_prec_cthk_237.txt.gz
RH
35 24 24 23 26 29 30 33 37 37 36 36 34 32 29 30 26 23 20 19 19 20 19 18 17 17 17 20 21 22 22 21 21 22 22 22 22 21 22 25 28 25 26
32 22 25 26 27 34 30 32 35 38 38 37 36 33 31 30 28 26 23 20 20 20 19 19 18 17 18 20 21 21 21 23 25 29 31 32 27 23 23 26 25 24 27
31 24 24 26 27 34 33 33 35 38 38 38 36 33 34 32 28 27 26 23 21 21 20 18 17 17 19 20 21 22 23 25 29 34 40 44 32 30 30 26 26 26 27
32 24 24 25 27 36 36 33 35 38 39 38 34 33 34 33 29 28 28 27 24 22 21 20 19 19 20 22 22 23 25 27 30 39 48 55 59 37 32 27 24 25 25
33 31 26 23 26 36 36 35 35 39 39 35 31 33 33 34 32 29 30 27 27 24 24 21 20 21 22 23 24 24 26 28 31 41 54 49 55 43 31 27 27 24 24
33 29 22 23 27 33 35 35 35 37 35 32 29 30 33 35 35 32 32 30 29 28 24 24 22 21 22 23 23 24 24 26 32 44 43 46 48 39 34 28 26 28 25
34 32 24 25 30 31 34 33 32 33 32 30 28 28 30 33 36 33 34 33 30 29 28 25 26 24 22 22 21 21 22 23 31 44 50 49 44 34 30 28 26 26 28
38 36 27 28 32 32 35 32 30 33 32 32 30 29 29 32 34 34 35 34 32 32 30 28 27 27 26 25 23 22 22 22 27 36 36 47 38 32 30 28 28 28 26
43 36 29 31 36 39 36 35 35 35 35 32 31 30 30 31 32 32 33 35 34 33 32 29 28 27 28 28 27 26 25 25 28 36 39 44 35 31 31 29 29 27 25
41 36 32 36 38 40 40 41 40 37 37 34 32 32 32 30 30 31 32 33 34 34 34 33 30 29 28 28 28 28 28 29 31 42 46 39 34 33 30 30 30 29 25
42 41 41 43 40 40 44 45 42 39 37 35 33 33 33 31 31 31 32 34 36 35 37 36 34 31 30 28 27 27 26 37 38 41 48 42 32 35 34 31 32 30 28
46 44 47 46 44 43 51 45 42 39 38 36 34 32 33 37 34 35 34 35 38 37 39 40 39 36 34 40 37 31 34 34 32 40 41 38 32 33 37 36 35 33 31
48 48 50 49 50 51 53 47 42 42 40 36 36 33 35 42 39 38 38 35 38 40 42 43 44 43 49 47 46 41 40 34 40 42 42 32 31 32 33 38 37 33 31
47 47 52 55 52 52 56 49 44 44 41 37 36 37 37 43 44 39 44 40 43 45 50 53 56 55 54 51 52 53 53 50 49 46 45 36 33 33 34 34 35 33 31
45 47 49 55 52 50 50 53 50 47 44 42 41 39 39 42 43 40 44 46 48 51 53 55 57 57 57 55 51 51 52 50 47 47 48 44 38 37 38 38 37 36 35
45 44 42 47 47 46 50 52 50 47 47 43 42 41 36 43 43 42 43 44 46 50 51 52 55 55 56 58 56 55 53 53 52 52 52 52 54 55 56 56 55 53 50
47 45 43 42 43 45 45 48 45 47 47 39 38 33 32 37 42 41 44 42 44 46 46 46 47 49 53 55 61 62 57 55 52 51 51 55 55 56 58 59 58 58 57
49 46 47 45 43 45 45 44 47 47 44 40 41 31 30 35 40 40 43 42 43 44 45 46 46 51 54 63 65 59 57 59 58 58 53 54 56 58 56 56 60 63 62
47 49 49 47 45 46 46 45 45 45 43 44 40 37 31 35 40 41 42 42 40 40 46 46 48 58 58 62 59 54 54 56 62 63 62 59 57 58 61 63 64 67 68
48 50 52 50 48 48 48 45 45 46 44 44 42 38 40 38 43 44 45 42 41 42 47 51 52 52 54 59 60 58 60 61 62 65 64 66 66 65 63 65 63 60 58
45 46 48 50 50 50 48 44 43 42 44 45 41 43 45 48 50 52 52 49 47 50 52 52 56 54 60 66 64 69 67 65 65 61 64 63 64 63 60 52 55 54 58
39 42 45 47 47 50 49 47 44 43 46 46 46 49 51 51 57 56 55 63 59 57 58 66 68 69 63 64 64 66 65 68 64 66 58 55 49 48 51 54 54 53 54
34 37 40 43 45 47 50 53 51 49 51 52 47 48 55 55 52 54 59 63 65 61 60 62 62 62 64 66 64 64 65 66 64 61 54 57 52 52 52 52 56 54 53
29 31 33 39 46 46 50 53 54 48 47 46 50 49 55 55 53 58 63 63 64 63 60 60 60 63 63 66 69 69 71 68 54 49 51 51 50 51 54 56 52 45 47
31 29 32 35 42 49 48 51 49 51 52 54 57 52 51 56 58 67 68 67 63 63 63 60 60 66 70 68 71 70 66 47 46 46 49 51 52 51 51 46 46 42 39
33 30 31 34 38 45 49 48 52 48 53 54 55 51 54 58 61 67 69 65 65 71 69 63 66 64 70 70 66 55 46 50 51 52 53 52 51 48 46 42 35 36 38

GFSSE_prec_cthk_240.txt.gz
RH
31 23 23 22 24 30 28 28 30 31 30 30 28 26 27 25 21 18 17 17 18 18 17 17 17 17 19 19 20 20 20 21 23 25 23 22 20 19 19 23 23 24 29
31 22 21 22 24 29 32 29 31 32 32 32 30 28 27 27 24 22 20 19 19 18 18 17 17 17 19 19 19 20 22 25 29 33 32 29 25 24 22 24 24 26 31
33 21 19 22 24 28 35 31 31 33 34 34 31 30 29 27 26 25 23 22 20 19 19 17 18 18 19 20 21 22 24 29 33 39 41 40 36 29 28 22 23 24 26
28 22 22 22 23 27 35 34 31 34 35 34 30 32 32 28 26 26 25 24 23 21 20 19 19 20 21 21 21 22 25 30 38 46 50 49 48 34 25 24 21 21 22
27 22 23 23 22 26 35 37 34 34 36 35 31 31 33 30 28 27 26 26 25 23 21 20 20 21 21 21 21 22 24 28 36 42 46 40 40 37 29 24 24 22 21
26 24 24 25 22 26 35 37 35 36 36 34 31 30 31 32 31 29 29 27 26 26 24 23 21 21 20 20 20 21 22 27 36 49 42 44 35 29 25 23 22 23 22
28 24 23 21 22 29 35 37 37 35 35 32 30 28 28 32 33 32 30 31 28 27 26 25 25 24 22 21 20 20 20 27 35 39 44 39 35 29 24 22 22 21 23
28 28 23 24 24 30 35 38 37 34 34 31 28 27 27 29 32 32 32 32 31 29 26 27 26 26 25 24 23 23 22 23 30 33 32 38 33 29 26 24 24 23 21
32 34 28 26 26 31 35 38 35 32 33 31 28 26 27 28 29 29 31 32 33 31 30 27 27 26 25 25 25 25 25 25 32 36 39 38 37 29 26 25 26 25 22
36 38 30 28 27 32 38 36 35 34 34 33 29 27 27 28 28 28 29 32 33 32 32 32 29 27 27 25 25 25 26 30 36 40 41 40 35 30 29 29 30 28 25
38 35 29 28 30 33 37 36 38 39 36 33 30 28 27 28 27 28 30 31 34 34 32 34 32 31 28 27 25 24 27 34 35 42 44 44 39 30 30 32 31 32 30
38 34 31 32 33 35 35 36 39 41 37 34 31 29 28 27 26 28 29 30 33 36 35 36 37 35 34 35 36 32 35 34 34 41 39 41 37 30 31 35 33 31 29
41 38 38 36 37 37 36 37 41 41 36 34 32 30 29 30 29 32 30 31 32 36 38 40 41 43 46 44 48 47 45 40 44 47 47 44 33 32 32 33 38 35 32
43 42 40 39 40 39 43 41 43 38 35 34 31 30 30 33 33 33 32 33 32 36 39 44 48 52 51 51 49 48 47 45 50 49 51 47 37 33 32 33 34 35 34
46 45 44 44 43 42 46 44 41 37 36 35 34 31 30 33 35 36 36 34 34 38 42 48 51 54 53 52 51 50 51 47 46 45 48 47 41 38 40 43 45 45 45
47 45 45 45 49 47 45 46 39 42 40 38 38 36 32 32 38 37 36 38 39 42 47 47 48 49 50 52 53 53 53 50 49 48 44 47 50 51 52 51 51 53 54
45 46 45 44 48 51 47 49 44 43 44 43 43 41 39 34 41 40 37 40 42 44 47 45 48 51 50 51 54 59 60 58 53 52 51 51 52 52 52 51 51 51 52
47 41 44 42 45 45 46 49 50 47 46 47 44 44 42 37 37 42 41 41 41 44 44 45 46 47 49 50 57 62 57 54 55 56 54 57 55 57 56 55 56 56 57
50 43 42 42 44 44 45 46 50 47 46 43 45 42 41 36 35 39 39 42 41 42 43 44 47 46 51 60 58 56 53 53 52 55 58 59 63 65 62 62 61 62 61
58 46 42 43 44 43 44 46 47 48 48 43 41 38 37 36 33 38 40 40 43 42 42 47 47 47 57 55 55 59 63 60 63 62 59 63 62 63 65 67 57 52 53
47 49 42 43 44 44 43 44 45 43 45 44 41 39 38 34 33 37 42 46 52 50 47 51 52 58 60 65 67 74 73 70 68 64 63 60 58 62 59 54 50 52 53
38 42 42 39 42 44 45 44 47 45 45 44 42 40 42 37 38 41 45 53 56 58 60 62 63 66 74 78 66 67 68 67 71 71 68 66 57 52 52 52 52 54 55
34 39 38 39 38 41 42 48 50 51 50 44 41 41 44 41 46 47 49 52 56 61 63 64 67 71 75 69 68 65 67 67 70 69 70 62 53 52 53 54 54 55 57
30 32 38 38 40 39 41 46 46 45 44 43 43 41 45 46 48 51 51 50 54 62 63 66 69 69 73 65 63 63 66 69 71 76 65 54 53 52 52 54 55 55 49
32 32 36 39 39 40 41 41 44 48 47 48 48 43 47 51 49 51 52 55 60 62 64 66 62 66 65 63 65 67 68 68 67 53 46 47 50 52 54 54 52 45 41
34 33 32 37 42 40 39 40 41 44 49 54 50 47 48 52 53 49 49 55 57 60 63 63 65 71 74 63 63 65 69 60 47 46 48 51 52 53 51 49 43 42 43

GFSSE_prec_cthk_246.txt.gz
RH
29 25 22 20 22 23 21 20 19 20 21 20 18 16 14 14 13 13 14 14 14 14 14 15 17 19 20 19 19 22 22 23 26 27 23 21 21 21 22 24 26 27 27
27 24 22 21 23 25 25 24 22 22 23 23 21 18 17 15 14 14 14 14 14 15 15 17 18 20 19 21 24 26 28 30 32 34 34 26 24 22 20 21 22 24 24
27 26 23 22 24 26 27 28 25 23 24 23 22 20 19 18 16 15 15 15 15 16 16 18 19 19 21 24 26 28 28 34 37 36 39 36 27 21 20 20 21 23 24
26 29 24 23 25 26 28 29 28 26 25 25 25 22 20 20 19 18 18 17 16 17 17 18 20 21 22 23 26 28 32 33 34 34 33 30 26 22 20 19 19 21 24
26 28 29 25 25 27 29 29 30 28 26 27 27 24 22 20 21 22 21 20 19 18 18 19 20 21 21 22 25 30 33 34 36 37 33 32 27 21 19 19 19 18 21
28 27 28 26 26 28 30 29 33 31 27 27 28 28 24 22 22 22 24 24 22 20 19 19 20 20 20 21 23 28 33 34 33 34 32 32 30 24 20 19 19 19 19
31 26 27 26 27 30 32 31 35 34 29 27 29 28 25 25 25 24 24 24 25 23 21 21 21 20 20 20 22 29 34 33 34 35 33 32 30 24 22 21 20 20 20
30 26 25 25 28 29 32 33 36 36 31 29 29 28 23 24 26 27 25 24 23 22 24 23 22 21 21 21 22 29 36 35 34 34 36 36 35 31 26 26 24 22 22
29 28 23 24 28 31 34 35 36 37 33 30 30 29 23 22 25 26 26 26 24 23 23 24 24 24 23 22 23 24 31 34 33 35 36 38 40 37 29 28 28 26 25
26 23 21 23 27 31 34 35 36 38 34 31 31 29 23 21 22 24 25 26 27 25 24 23 24 24 24 24 24 23 25 33 34 36 37 41 42 39 33 30 29 29 28
23 22 22 23 26 30 32 34 37 39 36 33 33 30 24 21 20 22 23 25 27 28 27 26 25 26 25 24 24 26 28 34 35 37 40 44 42 38 32 31 31 29 29
24 25 25 23 25 28 32 34 38 40 38 35 36 31 24 21 21 20 22 24 26 28 29 28 30 29 27 27 26 31 35 40 42 43 45 46 43 34 30 30 34 35 32
29 30 27 24 25 27 31 36 37 39 37 36 37 31 25 22 21 20 21 22 25 27 29 32 34 35 36 38 37 35 36 36 41 43 44 44 42 36 29 30 31 33 35
29 31 30 27 25 27 30 33 33 35 35 36 38 31 26 22 22 21 21 23 25 26 29 33 36 39 42 44 44 43 41 39 41 43 44 46 45 39 33 36 41 46 46
31 32 32 28 26 26 28 30 32 33 33 35 37 31 28 25 22 22 22 23 24 26 28 33 38 43 47 47 44 46 45 43 43 45 47 49 48 48 48 51 52 50 48
32 32 33 33 29 28 29 30 31 32 33 36 37 30 29 29 26 23 24 24 26 25 27 33 40 42 42 44 45 46 48 50 50 51 49 47 49 50 51 53 52 53 53
31 32 34 31 31 30 29 29 31 32 34 36 35 28 29 30 29 28 25 28 28 28 32 35 38 40 39 39 43 46 52 57 58 50 50 48 49 52 54 56 57 56 56
35 32 34 36 33 30 31 31 31 33 35 37 34 29 31 32 32 33 31 29 30 31 33 34 37 38 39 40 45 53 58 58 54 52 55 58 59 58 61 63 62 61 58
33 35 34 38 41 34 34 35 34 36 37 38 35 35 33 34 35 36 35 34 32 33 34 36 37 38 40 43 45 52 53 55 68 76 73 67 66 63 67 61 63 64 59
31 36 36 36 40 44 38 38 40 40 40 41 38 37 37 36 37 39 39 40 36 34 36 37 40 43 45 45 50 56 59 66 77 72 84 73 64 69 66 69 65 55 52
29 33 38 38 39 46 41 37 40 42 43 43 40 39 41 38 37 39 40 40 38 35 37 40 47 50 53 59 62 65 68 77 75 78 71 75 78 77 69 65 57 55 53
27 30 36 38 39 40 43 36 39 41 41 41 41 41 43 41 41 41 42 42 40 37 38 46 52 57 59 61 63 72 75 81 80 68 67 73 73 70 66 67 58 55 55
28 25 33 35 37 38 40 46 43 46 46 45 43 44 45 46 45 44 43 43 42 40 41 46 51 54 56 59 64 70 75 79 70 67 65 66 69 71 69 70 60 58 59
23 23 26 33 34 36 40 44 44 38 40 41 44 48 50 49 47 46 45 43 46 43 45 46 50 52 52 57 67 68 70 69 68 69 69 69 69 69 70 69 58 56 54
22 23 23 28 32 35 37 39 40 39 38 42 47 47 50 51 49 48 47 44 46 47 47 47 50 53 57 62 65 67 71 71 72 70 75 69 72 68 72 59 53 52 53
24 26 26 25 29 33 34 38 40 38 38 42 43 44 46 49 51 50 48 44 44 49 52 53 54 55 58 62 65 67 69 71 71 78 74 74 75 72 62 56 53 51 52

GFSSE_prec_cthk_249.txt.gz
RH
27 28 23 20 17 19 20 21 21 20 20 18 17 16 16 16 15 14 14 13 13 13 15 16 18 19 18 19 20 22 26 28 27 24 22 21 22 23 24 25 25 24 26
24 24 22 21 19 21 22 22 20 18 19 20 18 16 15 14 14 14 14 14 14 14 16 17 18 18 20 23 25 27 30 33 33 37 30 25 21 20 21 23 25 26 26
24 26 25 21 20 22 22 24 23 21 21 21 22 20 17 16 15 15 15 14 15 16 17 18 18 20 24 27 28 29 33 34 34 32 27 24 21 20 18 19 22 25 26
23 25 27 23 21 22 24 25 26 25 23 23 23 23 20 19 18 17 17 16 16 17 18 18 19 23 27 26 28 29 32 34 33 29 26 23 19 18 18 17 19 22 25
24 26 27 27 24 23 25 26 28 29 26 24 25 26 22 20 21 21 19 18 17 17 18 18 20 22 23 26 29 28 30 34 32 29 28 25 22 20 18 18 19 20 23
24 27 29 29 26 25 27 29 28 31 29 26 27 28 24 21 21 21 23 23 21 20 18 19 20 20 21 25 28 29 29 31 30 31 30 29 26 23 22 20 20 21 20
25 26 27 30 27 27 29 29 30 32 31 28 29 29 26 23 23 22 23 24 24 22 19 20 20 20 22 25 28 30 30 32 32 33 34 34 32 28 26 24 22 22 22
23 24 28 30 28 27 29 31 33 32 33 30 29 29 28 24 25 25 23 22 23 22 22 21 20 20 21 24 27 30 30 32 33 33 36 38 37 35 28 27 26 24 23
28 24 26 28 28 29 30 33 34 34 34 32 29 30 28 23 24 26 25 23 22 20 21 23 23 22 22 22 24 30 30 31 32 34 36 40 40 38 32 29 28 27 26
31 29 26 26 28 30 32 34 36 35 34 33 30 31 29 23 22 24 25 24 24 23 22 22 23 23 23 23 23 24 29 30 33 36 38 41 41 37 32 30 30 27 27
29 29 28 23 25 30 33 35 36 36 35 35 32 32 29 23 21 21 23 24 24 25 24 23 23 23 24 24 23 24 28 33 37 40 41 42 41 35 31 31 34 33 30
25 26 25 24 26 29 32 34 35 37 39 39 35 33 30 24 21 21 21 23 24 25 26 26 25 25 24 24 26 28 33 37 40 42 42 43 40 33 29 29 31 34 34
23 25 26 27 27 28 30 34 34 38 40 40 37 35 32 25 21 21 21 22 23 25 26 28 28 28 30 29 30 32 35 36 36 39 42 43 42 37 30 30 33 38 43
30 27 28 27 25 27 29 32 34 39 41 40 39 37 34 26 21 21 21 21 23 25 27 30 32 34 36 39 40 39 38 37 39 40 44 45 46 43 42 42 46 51 49
35 29 28 28 27 27 30 31 34 36 37 39 37 38 35 28 23 21 21 22 23 24 27 30 34 37 42 42 43 42 41 41 41 44 46 49 49 47 48 50 50 52 52
34 31 29 29 28 27 28 31 33 35 35 36 37 37 36 29 26 24 22 22 23 24 25 28 34 39 41 41 42 42 42 45 45 48 49 46 46 48 50 54 53 54 57
36 35 31 30 28 27 28 30 32 34 35 35 37 38 38 32 29 28 27 23 24 25 25 27 33 37 39 37 38 40 41 44 52 51 48 48 50 55 55 56 56 59 59
38 35 34 33 30 29 28 30 33 33 34 34 36 38 40 33 31 31 31 31 28 27 29 30 34 36 37 37 39 40 45 55 54 54 54 59 61 63 61 61 63 62 63
35 35 35 34 33 31 31 30 31 32 32 34 35 39 39 35 35 34 34 35 36 34 33 34 35 37 38 40 42 42 50 52 56 68 82 76 73 69 66 69 61 62 59
34 32 35 36 34 36 35 33 31 32 32 35 36 38 37 37 37 37 39 40 41 40 37 36 37 39 42 44 46 48 56 60 67 79 75 80 83 72 68 69 70 61 55
35 34 35 40 38 40 38 36 33 32 34 37 39 41 41 38 39 40 40 41 43 43 42 39 40 42 47 52 57 61 65 69 74 80 82 80 75 87 80 67 63 65 58
31 31 33 34 42 41 41 39 39 34 37 41 44 44 47 42 40 40 40 40 41 43 46 42 42 46 55 61 61 61 63 69 77 83 78 69 68 68 72 67 66 66 59
29 29 29 29 33 40 41 43 44 42 37 37 39 41 43 42 42 42 42 42 41 43 44 43 43 50 54 57 57 58 66 69 73 78 71 69 68 69 69 68 67 69 65
24 25 27 27 28 36 43 42 41 38 35 35 37 38 41 43 45 46 47 47 45 44 44 44 42 49 52 54 53 57 64 67 68 73 71 68 71 72 72 72 71 74 67
21 24 24 26 28 31 37 41 40 39 37 39 40 40 41 45 49 50 50 50 49 47 48 47 45 46 49 54 56 59 65 68 70 70 68 69 73 74 71 73 74 70 61
24 23 23 25 26 29 34 39 39 38 38 38 38 39 41 43 46 49 50 50 50 49 50 51 51 49 50 54 57 58 63 66 71 70 75 77 75 74 72 73 69 64 57

GFSSE_prec_cthk_252.txt.gz
RH
27 26 23 19 18 18 22 26 26 29 29 28 28 25 26 21 17 14 13 13 14 15 16 18 19 18 18 20 24 27 29 30 28 22 21 21 20 21 22 23 23 26 29
24 25 24 19 16 18 22 25 25 23 23 23 24 22 18 16 14 14 13 13 14 16 17 18 18 20 21 23 26 29 31 34 33 26 21 19 18 19 21 25 26 27 28
23 26 25 22 17 19 21 24 24 22 20 21 22 22 18 16 15 15 14 15 15 17 18 18 19 21 24 25 29 31 32 32 27 22 19 18 17 17 17 21 24 25 27
24 27 25 23 19 19 21 22 22 23 22 22 24 25 20 19 18 17 16 16 16 17 18 18 20 23 23 25 27 30 32 29 27 23 20 17 16 16 17 17 20 24 26
26 26 25 23 23 20 21 22 24 25 25 23 25 25 22 21 21 20 18 17 17 17 18 18 21 23 22 23 25 30 31 28 27 25 22 19 17 17 18 18 18 21 25
27 27 25 23 25 22 22 24 25 27 28 25 26 26 24 21 22 22 23 22 20 19 17 19 20 20 22 23 24 28 29 27 26 27 26 23 21 21 20 19 20 20 22
27 29 27 25 25 24 23 25 26 28 30 29 27 28 28 22 23 23 24 24 23 21 19 20 20 21 23 26 27 29 31 30 30 31 34 33 28 25 24 22 21 22 23
31 32 29 27 28 26 26 27 28 29 30 32 29 30 29 24 23 25 24 23 23 22 22 22 21 22 23 25 28 30 31 31 32 32 35 35 32 28 26 26 25 24 23
29 30 29 29 30 28 28 29 30 30 31 32 31 30 29 27 24 25 25 23 23 22 22 23 23 23 23 24 27 28 31 31 33 33 35 35 34 30 28 27 26 27 27
29 27 25 29 29 29 29 30 32 31 31 33 34 31 31 29 24 23 24 25 24 23 22 22 22 23 23 24 25 27 30 32 35 37 38 37 35 30 29 33 32 30 29
28 26 26 27 30 29 30 33 34 34 32 32 35 34 33 30 24 22 22 24 24 23 23 23 23 22 22 23 24 25 29 32 36 40 41 41 37 31 31 32 34 33 31
29 28 29 29 27 29 31 33 35 36 33 34 37 35 33 31 25 22 22 22 23 24 24 24 24 24 24 24 25 27 31 36 39 40 40 39 38 32 32 32 33 35 39
25 28 29 28 26 28 31 34 34 36 35 36 37 36 34 33 26 22 22 21 22 24 25 25 26 27 27 26 29 32 34 35 36 39 41 42 40 38 37 39 42 48 49
26 25 26 26 29 30 31 33 33 35 36 36 38 39 36 35 28 22 21 21 22 23 25 27 28 30 32 31 34 35 37 36 37 40 43 45 46 47 46 47 49 50 51
34 30 27 26 28 30 30 31 34 35 36 37 36 39 39 37 30 24 21 21 22 23 25 27 29 32 35 39 39 41 41 40 39 42 46 49 48 47 46 53 57 61 56
34 32 33 30 29 30 30 32 34 35 36 37 34 37 39 38 34 26 23 22 22 23 24 26 29 34 38 40 40 40 40 40 41 44 48 48 46 46 48 53 56 59 61
34 34 33 32 30 30 30 32 33 34 35 36 33 36 38 39 35 30 27 25 24 24 25 26 31 35 38 39 38 38 40 41 43 48 52 48 46 50 54 58 60 61 60
37 35 37 32 30 30 29 31 31 33 35 35 34 35 38 40 38 33 31 29 28 29 27 27 32 36 38 38 37 38 39 42 50 53 48 52 66 65 65 63 65 61 63
38 39 37 33 31 32 31 31 31 32 35 35 34 33 37 39 41 35 34 33 33 34 34 31 33 38 39 39 41 42 44 49 52 54 61 74 73 74 71 67 69 67 67
40 40 39 37 35 34 33 32 32 32 35 36 35 33 36 39 41 37 38 37 38 39 39 41 40 38 41 43 46 47 52 56 58 64 73 75 78 77 82 77 71 67 65
42 38 36 34 35 34 33 31 32 32 35 37 35 34 35 38 42 37 39 40 41 42 43 44 46 43 42 44 50 52 60 64 66 70 76 79 77 72 71 78 78 69 68
40 35 35 33 33 35 35 34 35 34 35 35 36 36 36 38 40 39 39 40 42 42 43 45 46 46 44 46 52 59 66 65 63 67 75 83 74 68 66 66 70 68 69
40 36 34 33 32 35 40 41 41 40 37 34 34 35 36 38 41 43 42 41 40 44 43 44 45 47 46 47 54 59 64 61 63 69 71 78 73 67 66 70 72 70 71
36 37 35 35 34 35 39 42 42 39 36 33 32 37 41 42 43 44 42 42 41 44 44 45 47 48 49 49 54 56 57 55 61 65 69 73 75 72 71 71 72 75 75
33 34 32 33 36 35 35 37 42 42 39 40 36 34 35 37 38 38 38 41 44 44 45 45 48 49 49 50 52 53 55 59 62 65 71 74 74 74 73 72 77 76 74
32 32 29 29 29 33 33 33 36 39 41 41 39 36 36 37 39 38 40 42 46 46 46 46 47 50 51 49 51 52 54 59 61 65 69 75 76 77 77 75 76 76 75

GFSSE_prec_cthk_255.txt.gz
RH
25 23 22 23 24 26 29 30 28 31 33 34 31 27 26 23 19 14 15 16 18 16 18 18 17 18 21 25 27 29 30 23 20 20 19 20 21 22 22 24 26 29 31
21 24 22 21 22 25 26 29 29 28 31 31 27 23 22 19 15 14 14 15 16 17 18 18 18 20 23 26 29 31 30 25 20 19 18 18 19 22 23 24 26 28 28
24 24 23 21 20 22 25 27 29 29 28 27 26 24 20 17 15 15 15 16 17 18 18 18 19 23 25 28 30 31 27 21 18 17 16 17 17 19 22 24 28 29 29
26 25 24 21 22 22 24 26 26 26 22 24 25 23 19 18 17 16 16 16 18 18 18 19 22 23 26 27 31 29 25 21 18 16 16 17 17 17 18 22 25 28 31
29 26 25 21 22 24 24 24 24 24 23 23 25 25 20 20 19 18 17 18 18 18 18 20 22 21 24 28 29 28 26 24 22 19 18 17 17 18 18 19 21 24 27
31 29 27 22 23 24 24 23 23 25 26 25 26 26 22 20 21 22 21 19 19 18 18 21 20 20 22 26 27 27 26 26 26 26 22 21 21 19 18 19 20 22 24
34 32 28 23 23 24 23 23 24 26 28 28 27 28 27 21 22 22 22 23 22 19 20 21 21 22 23 27 29 29 28 30 31 32 30 26 24 24 22 21 21 23 24
35 33 30 26 23 23 23 24 26 27 29 30 29 30 29 24 22 22 22 22 23 22 22 21 22 22 24 26 29 29 29 31 32 34 32 29 26 26 24 23 23 24 24
35 34 33 29 25 24 23 25 27 28 29 30 31 30 30 26 23 22 22 21 21 21 22 24 23 22 23 26 28 29 30 32 34 34 33 29 27 28 26 26 27 27 26
35 35 31 29 27 25 25 25 27 28 29 30 32 31 31 27 25 22 22 22 21 21 21 21 22 22 23 24 26 28 28 31 35 35 35 32 29 30 31 31 28 29 29
33 33 32 26 27 26 27 27 28 29 30 30 33 33 31 30 25 22 21 21 22 22 22 22 22 22 23 23 24 25 28 31 36 37 39 37 31 30 29 29 30 32 33
31 32 29 26 28 27 28 28 31 30 32 31 34 34 32 32 27 23 21 21 22 22 23 23 23 24 24 24 25 26 30 34 37 38 37 37 33 31 32 34 37 42 46
31 30 28 27 28 29 27 29 32 31 32 32 35 34 33 32 30 24 21 21 21 22 23 24 24 24 25 27 28 30 32 34 35 37 39 38 36 38 40 40 41 46 47
32 29 29 30 29 27 28 31 32 32 32 32 36 35 36 33 32 26 21 21 21 21 23 24 26 26 26 28 33 36 35 35 36 39 41 43 45 47 45 45 48 53 53
39 29 28 30 30 29 30 32 33 32 33 32 35 35 37 35 33 29 23 21 22 22 23 24 26 28 29 31 35 38 40 37 36 38 44 48 49 47 45 50 53 58 58
40 37 29 28 29 30 31 33 33 33 34 35 33 34 36 36 34 31 27 23 23 22 23 24 26 29 33 37 40 40 40 37 37 39 44 50 50 47 45 50 55 56 57
42 42 37 34 32 32 34 34 34 35 36 35 34 34 35 36 36 33 28 26 25 25 24 25 27 31 36 39 40 40 41 42 42 44 50 51 49 47 53 55 56 58 57
45 40 41 40 36 33 34 35 36 37 37 36 36 35 34 35 35 36 31 27 27 28 28 28 29 33 36 39 40 40 41 43 43 46 46 48 53 68 69 69 66 65 62
46 44 41 42 41 37 35 36 37 36 38 37 36 36 34 35 36 37 35 29 28 30 31 32 35 36 39 40 40 41 44 45 49 52 52 60 71 73 78 79 72 66 70
48 45 46 45 45 41 37 38 37 36 36 35 36 38 37 34 37 37 37 33 33 31 34 36 36 42 46 44 44 44 46 51 57 60 63 72 73 76 80 83 87 80 74
47 46 45 44 43 41 37 36 36 34 34 34 36 38 39 35 36 37 38 36 36 36 36 38 39 43 48 49 48 47 48 53 58 65 69 73 76 81 75 73 71 71 72
43 42 43 43 44 42 39 37 37 35 34 34 36 38 38 38 36 38 38 37 38 39 39 40 41 43 47 50 50 51 55 58 62 62 63 70 73 78 74 68 68 71 74
40 42 42 42 42 39 40 39 39 37 35 34 33 35 36 37 38 39 39 36 38 39 40 41 42 45 47 50 52 53 58 60 61 62 62 65 69 75 75 69 70 72 73
38 43 45 43 41 39 39 39 38 34 30 30 33 35 36 38 39 40 40 41 42 42 40 41 44 46 50 52 53 54 56 57 59 59 62 66 68 73 75 76 74 73 74
41 43 45 44 43 39 39 38 38 37 36 37 35 33 33 37 40 41 42 43 43 42 41 42 44 47 49 51 53 53 57 58 57 58 62 65 67 75 78 77 76 78 80
40 43 44 47 44 41 39 39 37 38 40 40 38 37 35 34 37 38 40 40 40 39 40 44 46 46 48 49 52 55 55 56 56 59 61 65 68 71 78 81 80 79 80

GFSSE_prec_cthk_258.txt.gz
RH
29 22 19 21 25 27 29 32 34 35 34 32 29 28 25 21 16 14 16 17 17 19 18 17 18 21 24 25 25 23 18 18 19 19 21 22 23 23 28 29 36 32 30
25 22 20 21 23 26 29 32 34 35 35 32 27 26 23 19 15 14 16 17 17 19 18 18 20 23 24 27 28 23 20 18 17 16 18 20 21 23 25 27 28 29 30
28 21 21 21 25 27 30 33 34 34 34 31 27 24 21 17 15 15 16 17 18 18 18 19 22 23 26 27 25 19 16 15 15 16 20 22 20 22 25 27 28 30 31
31 23 21 22 23 27 30 32 33 33 32 30 27 24 19 16 15 16 16 17 18 18 18 21 23 24 26 26 22 20 17 15 15 21 25 22 18 19 23 26 29 29 31
34 26 22 22 21 25 29 30 32 31 30 29 29 21 19 17 17 16 16 18 18 17 19 21 22 23 26 25 23 22 21 18 19 26 27 24 22 18 19 22 25 27 28
36 31 24 23 21 23 27 28 29 30 28 30 28 23 19 19 19 18 17 18 17 17 19 19 21 23 26 25 23 24 25 24 29 28 25 23 20 19 20 21 23 25 26
35 34 29 25 23 23 26 26 26 28 29 28 28 25 21 19 20 21 20 19 18 18 19 20 21 24 27 27 26 28 29 30 35 33 32 28 23 21 21 22 23 25 26
33 31 32 28 24 25 24 24 24 27 29 29 29 28 24 21 19 19 20 21 20 20 20 21 21 24 26 27 29 29 29 31 33 32 33 29 25 24 24 24 24 24 25
33 30 33 32 27 26 24 23 25 27 29 29 30 30 27 24 20 19 19 20 21 23 23 23 22 23 25 27 28 29 31 33 36 34 35 30 28 26 26 27 27 26 26
35 31 29 33 30 28 24 23 25 27 29 30 31 30 30 26 24 21 20 21 21 23 23 23 24 24 24 26 27 27 30 33 40 42 39 30 31 30 28 27 27 28 29
38 34 30 30 29 28 25 24 25 27 28 30 32 32 30 29 25 22 21 21 22 22 22 23 22 23 23 23 25 27 29 39 40 44 42 31 29 29 29 29 32 35 38
37 37 33 32 28 27 27 25 26 28 29 30 32 33 33 32 29 26 21 21 22 23 23 23 23 23 24 25 24 27 37 38 43 45 38 32 30 30 33 36 38 42 42
42 37 37 31 28 27 32 27 27 29 30 31 33 34 39 34 31 30 21 21 21 22 23 23 23 25 28 30 29 33 35 37 43 44 37 34 35 39 41 40 41 44 45
45 40 38 38 27 29 34 29 31 34 35 35 36 34 37 34 31 33 28 25 22 21 25 26 28 28 26 30 33 35 37 43 44 46 40 41 44 46 44 43 47 52 55
45 42 37 36 32 30 33 32 34 35 36 36 35 34 35 37 34 35 32 27 25 24 24 25 28 26 27 30 33 37 39 39 41 46 44 45 48 48 45 46 50 54 55
47 47 38 37 38 36 32 33 35 37 37 36 35 34 34 36 35 37 32 30 27 25 25 25 27 29 31 34 36 39 39 39 39 43 47 45 48 47 45 50 54 55 55
49 52 43 39 38 37 36 36 38 39 38 37 35 33 33 33 34 36 36 31 29 28 25 25 25 30 33 36 39 39 40 39 44 45 50 53 47 44 47 55 57 61 61
54 50 49 41 38 38 39 41 41 41 40 39 39 32 33 33 33 35 36 33 31 30 29 30 29 31 34 39 43 42 43 44 44 47 53 54 52 56 60 66 68 71 64
49 52 52 47 43 43 44 44 45 45 44 42 41 37 33 33 33 34 37 34 31 30 30 34 36 37 41 43 46 47 47 50 45 49 55 52 60 70 70 75 76 79 76
48 50 55 51 48 48 48 47 47 47 46 45 43 38 36 34 33 35 37 37 30 33 33 35 37 40 48 49 52 50 51 56 45 56 59 62 71 74 76 77 78 77 77
47 53 53 51 48 48 50 48 45 43 45 46 44 40 39 38 34 34 37 35 34 36 37 35 38 43 47 52 56 56 51 45 48 56 64 66 71 75 77 82 75 72 68
46 49 56 53 50 47 48 47 45 45 46 46 42 39 40 41 38 33 37 39 38 38 38 40 39 43 46 52 55 57 56 52 53 57 61 66 68 72 75 79 78 72 67
47 53 60 56 49 48 49 50 50 50 48 45 40 38 38 40 41 38 35 39 39 40 41 40 40 43 45 52 55 58 58 56 58 59 58 58 61 64 68 74 77 76 74
50 56 57 60 56 53 52 51 46 43 42 38 39 38 42 44 43 42 39 37 39 40 42 41 41 42 45 54 54 58 59 57 60 58 57 59 61 63 67 72 78 81 80
57 54 58 55 57 55 53 49 47 46 42 44 43 41 38 44 44 42 40 39 39 39 40 44 42 41 47 53 56 58 58 58 56 57 55 56 60 64 67 70 72 74 76
47 56 59 53 54 56 54 48 42 39 43 44 42 40 40 40 39 39 41 40 39 40 43 46 47 44 46 51 56 58 58 60 60 60 58 56 60 65 69 70 72 78 83

GFSSE_prec_cthk_264.txt.gz
RH
27 19 18 19 23 26 27 29 28 27 24 25 25 20 14 12 13 14 14 14 14 15 16 18 19 20 17 15 16 19 19 19 18 19 20 24 28 31 30 29 30 31 32
22 19 18 19 22 25 28 28 29 30 26 26 25 20 14 13 15 15 16 15 15 17 19 20 21 23 18 16 17 17 18 18 20 20 21 23 25 26 28 29 30 32 32
21 19 18 18 21 25 28 30 31 31 30 26 24 20 14 15 16 16 17 16 16 18 20 21 22 18 15 14 15 17 17 19 20 21 21 23 24 25 26 29 28 29 30
23 20 19 19 21 24 28 30 32 32 30 25 24 20 15 15 17 16 17 16 17 18 19 22 21 16 14 13 15 18 22 24 25 24 21 21 23 25 26 27 28 28 28
23 21 20 21 22 23 28 30 32 33 30 25 23 19 15 16 16 17 17 16 16 18 21 22 18 17 15 15 18 21 25 26 27 26 22 19 20 23 22 23 25 26 26
23 22 22 22 24 23 26 30 32 32 31 26 22 18 15 15 16 17 17 15 17 18 20 21 18 18 19 19 22 25 28 27 22 21 20 20 20 22 23 24 24 25 26
30 24 24 25 27 26 25 28 31 32 31 27 23 18 16 16 15 16 16 16 18 20 21 23 22 21 23 24 28 31 31 32 29 22 19 20 21 22 23 24 24 25 27
30 27 24 27 28 30 27 27 29 31 29 28 24 18 17 16 16 16 16 17 19 21 22 23 23 23 24 26 28 30 33 33 27 22 20 20 21 22 23 24 24 25 26
32 29 24 27 30 30 30 28 28 29 28 29 26 19 17 17 17 17 18 18 20 21 22 23 24 24 24 26 28 30 32 32 31 26 23 24 24 23 23 24 25 25 25
36 32 24 27 31 33 31 30 27 28 29 29 27 21 19 17 18 18 19 19 21 22 23 23 24 25 25 26 28 32 35 39 39 33 28 26 23 23 24 26 28 29 30
38 36 26 26 30 32 32 31 27 26 29 29 28 24 21 18 18 18 19 19 20 21 21 23 24 25 24 25 28 36 39 45 45 41 27 25 24 25 28 32 34 35 37
41 39 27 25 29 33 32 30 28 25 27 29 29 28 25 22 19 19 19 19 20 21 21 21 22 23 24 25 29 37 40 47 43 40 30 27 26 30 35 37 36 38 40
46 43 33 28 30 32 33 30 29 25 26 27 27 29 29 26 23 21 20 19 20 20 21 21 21 21 23 25 30 37 39 46 39 41 32 29 32 37 39 40 39 42 44
48 45 38 33 32 32 36 32 30 28 26 26 27 28 31 32 29 25 23 20 20 20 21 21 21 23 28 33 31 39 45 52 43 43 34 35 38 40 40 42 43 48 49
52 48 44 39 35 34 39 34 30 31 25 27 27 28 30 36 32 31 26 20 20 20 20 21 22 24 29 33 33 36 46 50 44 43 38 36 40 41 40 42 43 48 48
57 50 47 43 39 36 40 35 32 30 28 27 29 28 31 35 36 37 32 24 21 22 22 22 24 27 27 31 36 39 40 46 41 42 40 36 40 41 41 41 44 50 53
62 54 50 49 45 39 40 39 35 32 34 29 32 29 30 34 37 38 38 31 27 25 26 26 30 31 28 34 36 41 42 40 44 45 42 44 42 43 41 46 49 57 61
48 56 53 52 49 47 40 43 39 35 36 32 34 32 31 33 37 37 39 37 32 30 29 29 29 30 33 36 39 41 43 40 44 45 48 49 49 46 49 51 57 62 62
38 45 47 53 52 50 44 46 43 39 39 35 35 34 33 32 37 36 37 39 37 35 30 30 32 33 39 43 45 47 46 43 47 52 54 51 58 57 61 61 64 66 65
38 41 45 48 54 54 50 46 47 44 42 40 37 36 34 32 35 34 36 38 39 38 33 31 32 35 42 45 51 51 53 55 56 61 57 58 62 62 64 71 67 65 66
36 43 44 46 53 57 57 51 49 43 45 41 39 38 37 33 31 35 33 37 37 38 37 32 33 34 42 46 55 66 68 62 61 58 55 58 57 57 60 66 65 61 62
32 37 49 46 51 56 59 58 51 47 46 42 44 43 42 40 33 33 32 35 36 37 37 36 34 36 40 47 52 56 55 57 58 56 54 52 52 56 56 58 61 63 64
32 32 47 49 49 54 57 63 63 61 57 54 49 47 46 44 40 34 32 34 36 36 37 37 35 36 37 43 49 48 56 56 58 60 58 55 54 56 56 57 58 61 62
37 38 38 54 50 54 59 60 63 62 57 51 46 46 45 43 44 39 35 34 36 36 36 38 37 35 38 39 44 49 50 49 58 58 62 62 58 58 58 57 59 63 67
35 39 41 53 53 53 58 59 65 65 64 58 55 50 49 47 46 44 40 38 38 38 35 36 38 36 36 38 40 43 50 50 52 57 59 61 60 59 60 61 63 67 70
31 39 44 52 55 54 58 60 62 67 68 64 61 55 51 50 47 46 43 41 40 41 39 36 38 38 37 37 39 41 45 46 52 55 57 55 56 55 56 59 62 64 68

GFSSE_prec_cthk_267.txt.gz
RH
24 19 20 20 22 24 24 24 23 23 23 22 16 11 12 13 13 12 13 13 14 15 17 18 16 14 15 17 18 17 18 18 20 23 26 27 27 27 28 28 29 31 33
19 19 20 19 21 23 24 25 24 22 25 23 17 12 12 13 13 14 14 14 16 19 19 21 18 15 16 17 18 17 19 20 20 21 23 24 26 27 28 28 28 30 31
17 19 21 20 20 22 24 26 27 24 26 23 17 13 13 14 15 15 15 16 18 19 19 17 15 15 16 17 18 19 19 20 21 22 22 23 24 26 26 26 26 27 29
19 20 22 22 20 21 23 26 28 25 26 24 18 13 14 15 16 15 16 17 18 19 18 14 14 15 17 18 20 22 22 22 20 22 21 22 24 24 24 24 25 26 27
19 21 23 23 22 22 23 26 28 27 25 24 19 14 14 15 16 16 15 16 18 19 16 14 14 15 18 20 24 26 26 23 19 19 20 21 22 23 23 23 24 25 26
20 22 24 25 24 24 24 26 29 28 24 22 18 14 14 15 16 15 15 16 18 19 16 16 15 17 21 24 26 27 26 24 22 19 19 20 22 24 24 25 26 26 28
19 22 25 27 27 27 25 25 27 27 24 22 18 14 14 14 14 14 14 17 18 19 18 18 19 21 25 28 30 31 25 22 18 18 19 20 22 23 25 26 26 27 28
21 22 26 28 29 29 29 26 25 26 24 22 18 14 14 14 14 14 14 17 19 21 21 20 22 23 26 29 30 30 27 25 19 18 19 20 22 22 24 25 25 26 27
25 24 25 27 30 31 32 29 26 25 25 23 18 15 14 14 14 14 15 17 19 21 21 20 21 23 25 27 30 30 31 26 21 22 22 21 21 21 24 24 25 26 28
34 26 27 27 28 32 34 34 28 25 24 24 21 14 14 14 15 16 16 18 19 20 22 21 21 22 24 28 31 34 34 31 34 30 23 22 22 23 24 26 28 29 31
38 35 29 27 28 31 35 36 34 26 25 25 23 18 15 15 16 16 17 19 19 20 22 23 23 23 25 28 33 37 39 38 40 37 24 23 23 26 29 31 32 35 36
37 39 34 27 28 31 34 36 34 29 26 27 24 22 19 16 16 17 17 18 20 20 20 21 23 22 24 31 34 39 41 40 37 37 29 25 26 32 34 34 34 37 39
37 41 38 29 28 30 34 35 34 30 26 27 26 24 24 19 17 17 17 18 18 19 19 20 20 22 22 29 33 37 40 41 40 40 37 28 32 35 35 38 39 44 47
38 45 42 32 27 29 33 35 34 31 28 26 26 26 26 25 21 18 18 18 18 19 19 19 20 20 22 27 30 38 43 43 43 42 39 33 36 36 37 39 40 42 46
42 43 42 35 26 29 31 35 34 33 29 27 25 27 26 27 25 22 19 19 19 19 19 20 20 23 25 28 29 36 42 44 44 43 41 35 38 40 39 40 40 41 45
51 48 48 40 28 28 31 35 35 34 31 29 24 27 27 27 28 26 23 20 18 19 19 19 20 23 26 30 30 36 41 41 44 44 40 37 40 42 41 41 45 48 47
43 56 51 48 40 28 30 36 37 35 35 30 27 26 29 28 29 29 29 25 21 18 19 19 20 23 24 28 29 35 42 38 44 43 45 40 42 43 44 48 52 57 59
43 45 65 62 55 45 30 35 40 38 35 33 29 26 28 30 31 32 32 33 26 23 22 21 23 26 26 28 33 36 41 42 41 44 43 50 45 47 49 56 59 64 63
39 40 53 69 59 53 48 36 39 41 37 34 32 29 28 30 34 33 34 34 34 30 27 27 27 28 29 33 37 42 44 41 43 47 54 52 51 55 56 60 63 65 62
29 37 43 45 52 50 53 49 43 44 41 37 33 33 30 30 32 34 36 34 34 36 32 30 29 31 33 38 44 49 47 44 47 56 58 52 56 59 58 60 61 60 60
28 33 41 45 41 47 52 52 51 43 44 41 36 37 33 32 31 33 34 36 34 36 38 33 31 31 34 40 48 52 57 60 56 62 53 52 52 56 52 53 58 62 61
31 36 40 45 41 44 49 50 49 48 43 43 43 38 39 33 33 33 33 33 34 36 38 38 34 31 34 40 47 53 55 57 57 56 54 50 49 51 50 50 53 57 59
26 32 41 48 48 45 51 57 58 59 55 51 49 43 39 35 36 35 32 32 34 35 36 37 37 33 34 38 45 47 52 53 56 58 58 57 56 52 52 52 52 53 59
25 30 39 57 51 49 50 58 59 55 59 51 48 44 43 37 37 40 38 32 33 35 36 37 36 37 34 35 42 46 47 45 50 56 56 56 60 58 56 56 57 58 62
32 34 42 45 71 61 51 53 58 59 58 62 56 52 49 43 41 43 43 40 33 34 35 36 37 36 36 35 38 41 45 46 47 48 50 51 54 55 57 56 56 57 58
29 33 37 42 43 72 67 50 54 56 57 57 60 56 51 45 43 43 45 45 40 34 36 36 37 37 36 36 35 38 40 44 44 45 46 47 50 52 51 53 54 56 56